Total_Precipitation_Accumulation
1.91 2.13 2.64 3.32 3.71 4.24 4.74 4.73 4.54 4.63 4.77 4.80 4.61 4.81 5.03 5.33 5.63 5.54 5.43 5.34 5.21 5.13 5.29 5.36 5.34 5.18 5.18 5.13 5.03 5.01 4.93 4.62 4.45 4.54 4.16 3.66 3.16 2.90 2.81 2.82 2.92 2.84 2.75
2.09 2.38 2.90 3.25 3.62 3.97 4.24 4.55 4.70 4.75 4.57 4.96 5.25 5.56 5.95 6.01 6.29 6.53 6.57 6.35 6.05 5.85 5.72 5.80 5.50 5.20 5.16 5.09 4.99 4.90 4.77 4.35 4.22 4.33 4.40 3.84 3.35 2.77 2.39 2.45 2.48 2.53 2.62
2.38 2.72 3.05 3.20 3.43 3.78 4.13 4.48 4.85 4.98 4.94 5.47 6.03 6.47 6.87 6.78 6.83 6.79 6.76 6.69 6.26 5.93 5.75 5.54 5.43 5.28 5.09 4.94 4.94 4.86 4.77 4.49 4.25 4.17 4.45 4.24 3.70 3.09 2.72 2.43 2.38 2.44 2.53
2.15 2.49 2.82 3.28 3.25 3.50 3.91 4.27 4.72 5.15 5.50 5.95 6.48 6.99 7.31 7.53 7.33 7.01 6.72 6.35 5.86 5.56 5.21 5.05 5.19 5.14 4.89 4.66 4.34 4.26 4.32 4.34 4.15 4.02 3.81 3.74 3.64 3.48 3.16 2.77 2.67 2.66 2.63
2.05 2.26 2.40 2.75 3.04 3.30 3.66 4.11 4.47 4.92 5.60 6.38 6.97 7.53 7.85 7.85 7.27 6.68 6.16 5.68 5.23 4.89 4.65 4.64 4.82 4.79 4.54 4.30 4.01 3.89 3.73 3.69 3.82 3.85 3.71 3.57 3.42 3.19 3.13 3.00 2.81 2.70 2.58
2.12 2.28 2.41 2.71 2.93 3.04 3.33 3.89 4.46 4.87 5.46 6.24 6.83 7.19 7.37 7.29 6.82 6.18 5.67 5.21 4.72 4.31 4.00 3.87 3.86 3.85 3.70 3.55 3.51 3.52 3.45 3.41 3.52 3.56 3.46 3.37 3.30 3.19 3.21 3.08 2.84 2.78 2.74
2.34 2.33 2.34 2.45 2.69 2.86 3.14 3.62 4.16 4.69 5.07 5.54 6.06 6.11 6.18 5.93 5.53 5.33 5.02 4.50 4.03 3.64 3.32 3.19 3.14 3.18 3.19 3.10 3.13 3.22 3.22 3.17 3.26 3.21 3.14 3.08 2.92 2.95 3.14 3.28 3.11 2.99 2.82
2.18 2.25 2.23 2.42 2.76 3.04 3.33 3.63 3.88 4.22 4.60 4.77 4.93 4.81 4.68 4.60 4.44 4.22 3.83 3.46 3.18 2.98 2.90 2.85 2.70 2.70 2.78 2.77 2.96 2.92 2.84 2.84 2.87 2.77 2.91 2.92 2.75 2.81 2.96 3.18 3.50 3.56 3.22
2.01 2.12 2.24 2.50 2.79 3.07 3.26 3.53 3.73 3.82 3.80 3.85 3.92 3.87 3.78 3.66 3.60 3.49 3.13 2.83 2.69 2.54 2.52 2.49 2.44 2.35 2.32 2.35 2.40 2.40 2.46 2.55 2.48 2.48 2.54 2.51 2.53 2.64 2.74 2.99 3.41 3.73 3.57
2.12 2.16 2.27 2.51 2.59 2.66 2.86 3.14 3.31 3.51 3.49 3.33 3.24 3.30 3.27 3.07 2.89 2.72 2.52 2.34 2.28 2.25 2.24 2.15 2.12 2.13 2.16 2.14 2.10 2.09 2.17 2.24 2.25 2.33 2.31 2.25 2.26 2.43 2.52 2.64 2.84 3.15 3.45
2.24 2.18 2.30 2.41 2.33 2.28 2.33 2.53 2.79 3.12 3.14 3.01 2.88 2.93 2.90 2.75 2.57 2.41 2.25 2.21 2.09 2.06 1.99 1.98 1.99 1.93 1.92 1.98 2.04 2.04 2.11 2.20 2.17 2.09 2.10 2.14 2.29 2.40 2.37 2.42 2.55 2.73 3.01
2.35 2.23 2.24 2.31 2.31 2.18 2.10 2.30 2.42 2.51 2.54 2.56 2.61 2.73 2.67 2.58 2.39 2.26 2.20 2.14 1.99 1.94 1.94 1.94 1.90 1.77 1.72 1.89 1.97 1.97 1.97 2.08 2.04 2.00 2.08 2.09 2.14 2.21 2.26 2.36 2.47 2.65 2.89
2.59 2.50 2.29 2.23 2.26 2.14 2.12 2.20 2.26 2.26 2.21 2.23 2.22 2.28 2.29 2.21 2.15 1.96 1.91 1.90 1.89 1.89 1.86 1.76 1.75 1.70 1.68 1.79 1.82 1.85 1.85 1.87 1.92 1.94 2.01 2.00 2.07 2.09 2.16 2.22 2.29 2.44 2.55
2.56 2.39 2.31 2.25 2.15 2.12 2.15 2.20 2.15 2.02 2.08 2.12 2.19 2.12 2.12 2.15 2.18 2.07 1.94 1.85 1.82 1.80 1.78 1.71 1.65 1.65 1.68 1.62 1.58 1.62 1.72 1.79 1.74 1.67 1.76 1.82 1.88 1.93 2.07 2.03 2.11 2.24 2.42
2.52 2.38 2.31 2.24 2.06 1.97 1.96 1.91 1.88 1.81 1.85 1.94 2.03 2.08 2.00 1.95 1.96 2.00 1.87 1.69 1.62 1.58 1.67 1.60 1.53 1.55 1.50 1.38 1.40 1.45 1.46 1.58 1.57 1.52 1.54 1.57 1.62 1.63 1.66 1.61 1.83 2.07 2.27
2.66 2.49 2.41 2.31 2.15 2.04 1.89 1.82 1.73 1.61 1.65 1.70 1.90 2.00 1.94 1.87 1.78 1.81 1.78 1.73 1.67 1.64 1.65 1.61 1.53 1.45 1.33 1.30 1.24 1.24 1.29 1.40 1.53 1.60 1.57 1.45 1.39 1.33 1.25 1.29 1.44 1.69 1.97
2.58 2.49 2.49 2.38 2.25 2.22 2.08 2.03 1.82 1.60 1.67 1.70 1.71 1.83 1.88 1.91 1.89 1.80 1.78 1.82 1.85 1.83 1.67 1.56 1.53 1.45 1.34 1.27 1.08 1.03 1.10 1.31 1.47 1.60 1.64 1.36 1.19 1.29 1.25 1.30 1.31 1.39 1.53
2.70 2.68 2.58 2.46 2.20 2.06 2.02 1.95 1.84 1.70 1.72 1.69 1.61 1.67 1.73 1.82 1.85 1.81 1.82 1.83 1.81 1.79 1.74 1.62 1.56 1.47 1.23 1.10 0.94 0.97 1.03 1.19 1.21 1.25 1.37 1.41 1.38 1.27 1.33 1.36 1.43 1.46 1.54
2.57 2.58 2.48 2.44 2.34 2.10 2.02 1.89 1.79 1.78 1.70 1.57 1.48 1.44 1.45 1.54 1.58 1.64 1.72 1.82 1.84 1.74 1.62 1.52 1.46 1.38 1.23 1.13 1.02 1.03 1.07 1.16 1.09 1.01 1.05 1.11 1.16 1.17 1.24 1.36 1.57 1.62 1.72
2.08 2.08 2.06 2.06 2.11 1.93 1.87 1.84 1.83 1.81 1.69 1.50 1.35 1.29 1.33 1.45 1.51 1.59 1.75 1.78 1.79 1.64 1.44 1.36 1.38 1.31 1.28 1.15 0.97 0.92 0.92 1.06 1.10 1.13 1.16 1.08 0.96 1.02 1.13 1.36 1.66 1.82 1.86
1.91 1.83 1.79 1.85 1.84 1.75 1.75 1.78 1.76 1.67 1.50 1.37 1.36 1.37 1.38 1.47 1.52 1.64 1.76 1.71 1.55 1.52 1.44 1.36 1.38 1.26 1.13 0.98 0.83 0.80 0.79 0.92 1.01 1.06 1.13 1.12 0.95 0.86 0.92 1.15 1.42 1.63 1.76
1.94 1.87 1.84 1.76 1.71 1.76 1.82 1.79 1.73 1.50 1.39 1.38 1.42 1.47 1.45 1.37 1.36 1.57 1.68 1.62 1.56 1.50 1.44 1.38 1.30 1.16 1.04 0.90 0.80 0.70 0.65 0.70 0.90 1.10 1.12 1.12 1.06 0.98 1.02 1.14 1.31 1.48 1.70
1.93 1.92 1.87 1.76 1.69 1.71 1.78 1.72 1.56 1.35 1.27 1.39 1.52 1.56 1.49 1.52 1.49 1.47 1.54 1.61 1.60 1.45 1.33 1.28 1.22 1.12 1.03 0.93 0.80 0.69 0.64 0.66 0.79 0.98 1.08 1.06 1.02 1.06 1.25 1.40 1.50 1.66 1.86
1.72 1.71 1.69 1.62 1.54 1.48 1.46 1.47 1.38 1.30 1.32 1.42 1.53 1.57 1.59 1.63 1.58 1.47 1.33 1.31 1.31 1.29 1.22 1.17 1.08 1.07 1.06 0.88 0.78 0.82 0.78 0.78 0.83 0.96 1.13 1.21 1.20 1.30 1.44 1.56 1.66 1.78 1.87
1.64 1.62 1.57 1.47 1.33 1.27 1.22 1.18 1.19 1.23 1.29 1.36 1.42 1.46 1.47 1.49 1.53 1.41 1.26 1.22 1.14 1.09 1.07 0.99 0.92 0.96 0.94 0.82 0.79 0.75 0.78 0.86 0.89 0.97 1.12 1.23 1.28 1.38 1.51 1.63 1.67 1.72 1.72
1.54 1.62 1.51 1.42 1.26 1.20 1.19 1.12 1.08 1.16 1.24 1.29 1.26 1.22 1.26 1.30 1.32 1.35 1.26 1.06 0.90 0.81 0.76 0.75 0.71 0.66 0.68 0.68 0.64 0.65 0.73 0.82 0.92 1.02 1.24 1.32 1.32 1.36 1.44 1.57 1.63 1.57 1.56